TimeEDT,TemperatureF,Dew PointF,Humidity,Sea Level PressureIn,VisibilityMPH,Wind Direction,Wind SpeedMPH,Gust SpeedMPH,PrecipitationIn,Events,Conditions,WindDirDegrees,DateUTC
12:54 AM,70.0,66.0,87,29.90,10.0,SW,4.6,-,N/A,,Overcast,220,2013-10-18 04:54:00
1:54 AM,70.0,66.0,87,29.91,10.0,WSW,3.5,-,N/A,,Mostly Cloudy,250,2013-10-18 05:54:00
2:54 AM,69.1,64.9,87,29.91,10.0,WSW,3.5,-,N/A,,Partly Cloudy,240,2013-10-18 06:54:00
3:54 AM,69.1,66.0,90,29.91,10.0,WSW,3.5,-,N/A,,Overcast,250,2013-10-18 07:54:00
4:54 AM,69.1,64.9,87,29.92,10.0,Calm,Calm,-,N/A,,Scattered Clouds,0,2013-10-18 08:54:00
5:54 AM,69.1,66.0,90,29.93,10.0,Calm,Calm,-,N/A,,Overcast,0,2013-10-18 09:54:00
6:54 AM,69.1,66.0,90,29.94,10.0,Calm,Calm,-,N/A,,Overcast,0,2013-10-18 10:54:00
7:54 AM,69.1,66.0,90,29.97,10.0,NW,3.5,-,N/A,,Overcast,320,2013-10-18 11:54:00
8:06 AM,69.8,66.2,88,29.97,10.0,NNW,5.8,-,N/A,,Overcast,330,2013-10-18 12:06:00
8:14 AM,69.8,66.2,88,29.98,10.0,North,5.8,-,N/A,,Overcast,350,2013-10-18 12:14:00
8:54 AM,69.1,64.0,84,30.01,10.0,North,6.9,-,N/A,,Overcast,350,2013-10-18 12:54:00
9:54 AM,70.0,63.0,78,30.01,10.0,NNE,8.1,-,N/A,,Overcast,30,2013-10-18 13:54:00
10:54 AM,71.1,59.0,66,30.03,10.0,North,9.2,-,N/A,,Mostly Cloudy,360,2013-10-18 14:54:00
11:54 AM,71.1,57.0,61,30.04,10.0,Variable,3.5,-,N/A,,Overcast,0,2013-10-18 15:54:00
12:54 PM,72.0,57.0,59,30.01,10.0,North,3.5,-,N/A,,Mostly Cloudy,360,2013-10-18 16:54:00
1:54 PM,73.9,59.0,59,29.99,10.0,Calm,Calm,-,N/A,,Overcast,0,2013-10-18 17:54:00
2:54 PM,73.9,60.1,62,29.98,10.0,NNW,3.5,-,N/A,,Overcast,330,2013-10-18 18:54:00
3:54 PM,73.9,62.1,66,29.97,10.0,NE,4.6,-,N/A,,Mostly Cloudy,40,2013-10-18 19:54:00
4:36 PM,73.4,62.6,69,29.97,10.0,NNE,6.9,-,N/A,,Overcast,30,2013-10-18 20:36:00
4:54 PM,73.0,63.0,71,29.98,10.0,ESE,3.5,-,N/A,,Overcast,120,2013-10-18 20:54:00
5:54 PM,71.1,62.1,73,29.98,10.0,East,3.5,-,N/A,,Overcast,100,2013-10-18 21:54:00
6:54 PM,70.0,64.0,81,30.00,10.0,Calm,Calm,-,N/A,,Overcast,0,2013-10-18 22:54:00
7:54 PM,68.0,64.9,90,30.01,8.0,Calm,Calm,-,0.01,Rain,Light Rain,0,2013-10-18 23:54:00
8:09 PM,68.0,64.4,88,30.01,4.0,Calm,Calm,-,0.01,Rain,Rain,0,2013-10-19 00:09:00
8:19 PM,68.0,64.4,88,30.01,2.5,ESE,4.6,-,0.04,Rain,Rain,110,2013-10-19 00:19:00
8:28 PM,68.0,64.4,88,30.01,3.0,East,4.6,-,0.05,Rain,Rain,90,2013-10-19 00:28:00
8:43 PM,68.0,64.4,88,30.01,7.0,East,3.5,-,0.06,Rain,Light Rain,100,2013-10-19 00:43:00
8:54 PM,68.0,64.9,90,30.01,9.0,East,4.6,-,0.06,,Overcast,90,2013-10-19 00:54:00
9:54 PM,68.0,66.0,93,30.02,10.0,East,3.5,-,N/A,,Overcast,90,2013-10-19 01:54:00
10:54 PM,68.0,64.9,90,30.00,10.0,East,4.6,-,N/A,,Overcast,100,2013-10-19 02:54:00
11:17 PM,66.2,64.4,94,30.00,10.0,East,5.8,-,N/A,,Overcast,80,2013-10-19 03:17:00
11:54 PM,68.0,66.0,93,29.99,9.0,East,4.6,-,N/A,,Overcast,100,2013-10-19 03:54:00